Simultaneous Nadir Overpasses (SNOs) Predictions

Prediction of SNOs between GOES-14 and AQUA Satellite Orbit:

Table of predicted SNOs for the next 14.0 days since TLE Epoch: 2/26/2022
Index Date Time (GOES-14) GOES-14 Lat,Lon AQUA Lat,Lon Distance(km) Time Diff (sec)
1 02/26/2022 08:23:30 0.07,-104.60 -0.63,-101.43 361.68 80
2 02/26/2022 20:44:51 -0.07,-104.40 -0.53,-106.60 250.35 80
3 02/28/2022 20:29:55 -0.07,-104.40 0.10,-103.62 88.58 80
4 03/01/2022 08:51:10 0.07,-104.59 0.97,-108.77 475.94 80
5 03/02/2022 20:17:40 -0.07,-104.40 0.74,-100.64 428.18 80
6 03/03/2022 08:38:54 0.07,-104.60 0.32,-105.79 135.74 80
7 03/05/2022 08:29:18 0.07,-104.61 -0.33,-102.81 204.80 80
8 03/05/2022 20:50:40 -0.07,-104.44 -0.82,-107.99 403.49 80
9 03/07/2022 20:38:23 -0.07,-104.45 -0.22,-105.00 63.21 80
10 03/09/2022 20:23:27 -0.08,-104.46 0.46,-102.02 277.03 80
11 03/10/2022 08:44:41 0.08,-104.62 0.65,-107.17 290.30 80
